Cloud_Cover
0 0 0 0 26 99 47 10 100 51 66 100 100 53 86 69 83 100 100 72 100 100 96 5 5 5 0 2 43 0 0 0 0 3 98 1 12 4 5 5 0 100 1 0
0 0 0 0 14 13 80 83 100 100 100 100 100 100 100 76 100 94 100 95 100 100 100 44 6 15 0 2 1 0 0 0 0 1 70 2 2 30 5 5 2 1 5 1
0 0 0 0 0 3 5 43 84 96 100 94 100 100 100 92 54 84 100 100 98 100 72 16 95 30 8 17 2 0 0 0 0 0 5 55 7 75 100 96 22 0 1 2
0 0 0 0 0 0 5 29 99 100 96 98 100 100 100 100 51 100 100 97 98 100 100 97 100 79 7 62 1 0 0 0 0 0 0 30 63 100 95 92 71 0 4 2
0 0 0 0 0 0 0 100 96 98 43 12 89 100 100 100 100 98 100 100 100 100 100 62 86 76 0 12 2 2 0 0 0 0 0 0 4 95 5 96 91 0 4 4
0 0 0 0 0 0 10 100 98 35 64 10 29 100 100 100 100 100 100 100 100 100 100 88 69 74 27 5 8 10 6 2 1 73 0 70 100 48 8 35 98 0 4 45
0 0 0 0 0 0 76 99 24 77 66 3 35 94 100 100 100 100 100 93 78 100 100 100 100 92 63 32 32 100 100 38 5 78 100 100 100 100 98 12 30 0 1 5
0 0 0 0 0 0 41 71 5 21 34 22 76 100 100 100 100 100 100 100 62 80 100 100 100 79 6 19 31 100 100 100 51 100 100 100 100 100 99 3 4 0 0 1
3 0 0 0 0 0 54 62 5 5 52 46 33 100 100 100 100 100 100 100 100 100 100 100 98 89 100 46 100 100 100 100 99 41 100 100 100 100 100 12 5 1 63 0
61 22 0 0 0 0 1 14 5 5 19 100 5 59 100 100 100 100 83 100 100 89 85 100 100 100 100 100 69 100 98 100 100 100 100 82 100 100 100 64 2 7 31 6
6 32 1 0 0 0 0 0 3 85 81 68 90 72 100 100 100 100 100 100 100 100 100 100 100 100 100 100 100 96 100 67 100 100 100 100 100 100 100 100 100 100 100 99
84 100 8 5 1 0 0 0 40 98 98 100 97 96 100 100 100 100 100 100 100 100 100 100 100 100 100 99 100 100 98 100 100 100 100 100 100 100 100 100 100 100 100 100
100 100 50 35 6 1 0 0 16 100 89 51 16 98 100 100 90 100 100 100 100 100 100 100 100 100 100 100 100 100 100 100 100 100 100 100 100 100 100 100 100 100 100 100
100 100 96 82 44 5 1 0 6 94 100 52 12 96 100 89 93 100 97 100 100 100 100 100 100 100 100 100 100 100 100 100 100 100 100 100 100 100 100 100 100 100 100 100
100 100 100 99 49 5 5 1 87 68 6 5 87 88 100 95 100 96 100 99 89 100 100 100 100 100 100 100 100 100 100 100 100 100 100 100 100 100 100 100 100 97 98 100
100 100 100 96 58 7 5 15 100 50 71 0 4 100 65 31 3 66 100 96 97 100 100 100 100 100 100 100 100 100 100 100 100 100 100 100 100 100 100 100 100 95 100 95
89 100 100 100 88 100 100 100 46 78 5 3 75 94 98 95 100 17 100 100 100 100 100 100 100 100 100 100 100 100 100 100 100 100 100 100 100 100 100 100 100 100 100 100
90 68 100 100 100 100 100 88 59 5 2 0 27 42 14 37 88 10 96 100 100 100 85 98 75 100 100 100 100 100 100 100 100 100 100 100 100 100 100 100 100 100 100 100
6 25 18 90 100 98 60 99 69 25 50 0 8 77 100 50 87 100 100 96 100 97 48 62 100 100 100 100 100 100 77 26 90 100 100 100 100 100 100 100 100 100 100 100
94 86 100 100 12 96 100 100 100 8 95 70 0 0 3 27 2 58 46 100 100 100 100 100 100 99 100 100 100 100 34 5 4 0 0 100 100 100 100 100 100 100 100 100
38 98 93 92 17 62 94 100 100 42 38 12 0 1 3 0 0 3 5 42 98 100 100 100 100 78 59 100 100 100 100 94 99 97 0 72 100 81 100 100 100 100 100 100
39 100 99 84 1 5 1 91 100 44 9 5 3 11 85 28 57 5 1 1 6 66 57 94 100 4 2 0 5 25 90 100 100 100 25 0 98 100 86 100 100 100 100 100
100 93 100 72 5 91 100 100 87 2 86 33 5 14 96 97 47 4 0 0 0 7 26 24 13 49 4 0 0 0 0 0 0 0 0 0 0 44 100 99 100 100 100 100
19 99 100 100 89 98 100 100 90 5 75 42 10 18 100 100 100 100 63 2 0 0 0 0 0 0 0 0 2 0 0 0 0 0 0 0 0 0 0 1 54 85 84 100
5 5 50 100 99 42 100 100 100 89 42 93 89 95 97 52 96 50 62 73 5 0 0 0 0 0 0 0 0 0 0 0 0 0 0 0 0 0 0 0 0 0 0 0
3 0 1 5 36 98 99 100 100 95 100 57 10 16 5 6 5 86 100 100 95 46 7 4 1 0 0 0 0 0 0 0 0 0 0 0 0 0 0 0 0 0 0 0